Regional Weather Roundup
Issued by NWS Green Bay, WI

Home | Current Version | Previous Version | Graphics & Text | Print | Product List | Glossary Off
Versions: 1 2 3 4 5 6 7 8 9 10 11 12 13 14 15 16 17 18 19 20 21 22 23 24 25 26 27 28 29 30 31 32 33 34 35 36 37 38 39 40 41 42 43 44 45 46 47 48 49 50

000
ASUS43 KGRB 270459
RWRGRB

NORTH-CENTRAL AND NORTHEAST WISCONSIN REGIONAL WEATHER ROUNDUP
NATIONAL WEATHER SERVICE GREEN BAY WI
1200 AM CDT MON APR 27 2015

WIZ005-009-010>012-018-019-270600-
NORTH CENTRAL WISCONSIN

CITY           SKY/WX    TMP DP  RH WIND       PRES   REMARKS
IRONWOOD       CLEAR     32  30  93 CALM      30.15R
MANITOWISH WTR NOT AVBL
ARBOR VITAE    NOT AVBL
EAGLE RIVER    NOT AVBL
LAND O LAKES   NOT AVBL
RHINELANDER    CLEAR     38  28  67 N5        30.13S
PHILLIPS       NOT AVBL
ANTIGO         NOT AVBL
TOMAHAWK       NOT AVBL
MERRILL        NOT AVBL
$$

WIZ013-073-270600-
NORTHEAST WISCONSIN

CITY           SKY/WX    TMP DP  RH WIND       PRES   REMARKS
IRON MOUNTAIN  CLEAR     40  27  59 NW7       30.09S
MARINETTE      CLEAR     41  27  56 N8        30.09S
$$

WIZ017-030-035>037-045-270600-
CENTRAL WISCONSIN

CITY           SKY/WX    TMP DP  RH WIND       PRES   REMARKS
MEDFORD        NOT AVBL
WAUSAU         CLEAR     45  30  55 CALM      30.10R
MOSINEE        NOT AVBL
MARSHFIELD     CLEAR     46  28  49 NE12      30.11R
WISC RAPIDS    CLEAR     44  26  49 SE7       30.12R
STEVENS POINT  NOT AVBL
WAUPACA        NOT AVBL
SHAWANO        NOT AVBL
CLINTONVILLE   NOT AVBL
$$

WIZ038-039-048-051-270600-
FOX VALLEY

CITY           SKY/WX    TMP DP  RH WIND       PRES   REMARKS
NWS GREEN BAY  CLEAR     41  34  76 N6        30.10R
APPLETON       NOT AVBL
OSHKOSH        CLEAR     41  32  70 CALM      30.10R
FOND DU LAC    CLEAR     41  30  65 NE6       30.09S
$$

WIZ022-050-052-270600-
EAST CENTRAL WISCONSIN

CITY           SKY/WX    TMP DP  RH WIND       PRES   REMARKS
STURGEON BAY   PTCLDY    43  28  56 N12       30.10S
MANITOWOC      NOT AVBL
SHEBOYGAN      CLEAR     38  30  73 N6        30.08R
$$

LMZ563-521-522-541>543-270600-
LAKESHORE

STATION/POSITION TIME  TEMP    WIND        PRES    VSBY  WAVE
                       AIR SEA DIR/SP/G                  HT/PER
                 (UTC) (F)     (DEG/KT/KT) (MB)    (MI)  (FT/S)
SHEBOYGAN LKSHOR 0400   41     360/ 12/ 13 1019.1R
KEWAUNEE LKSHORE 0400   42     350/  5/  8 1017.7R
NORTHPORT PIER   0400   40     310/  6/  7 1018.6R
CHAMBERS ISLAND  0400   41     320/  5/  6 1019.0R
MENOMINEE LKSHOR 0400   45     320/ 11/ 12 1019.3R
$$


USA.gov is the U.S. government's official web portal to all federal, state and local government web resources and services.